Wind_Speed
33 31 30 31 32 33 32 32 35 37 34 32 33 32 31 29 28 27 27 27 25 24 23 23 24 26 26 26 27 26 26 26 27 28 30 32 34 35 39 41 42 41 38 36
34 32 30 31 32 33 34 34 35 38 37 37 37 36 34 34 33 31 31 30 30 29 28 27 26 27 28 28 29 29 29 29 30 32 34 35 37 39 42 43 41 38 35 33
34 32 31 31 31 32 34 35 36 38 40 40 39 38 38 38 37 35 34 34 34 33 32 32 31 30 29 29 30 31 31 33 34 35 36 38 40 41 42 42 41 39 37 32
34 33 32 31 31 31 32 34 36 37 39 40 43 41 37 41 41 39 38 38 37 37 37 36 34 32 31 31 32 33 34 36 37 38 38 40 41 43 43 44 42 41 35 32
32 32 31 31 31 31 32 33 35 37 39 41 42 41 36 42 42 42 42 41 41 41 40 38 36 34 33 33 33 35 36 37 38 39 40 41 41 42 44 42 40 39 34 32
30 31 31 31 32 32 32 33 34 36 38 40 40 40 35 41 42 41 42 42 42 42 41 38 36 34 33 33 34 35 36 38 39 40 40 40 40 41 41 39 39 37 35 34
28 29 30 30 31 32 32 32 31 32 35 34 36 37 35 42 39 38 38 38 38 37 37 35 34 32 32 32 33 34 35 36 37 38 38 38 38 38 38 38 37 36 35 34
22 23 26 28 28 29 30 31 30 25 23 23 31 31 36 37 35 34 33 32 32 31 31 31 30 29 29 30 31 33 34 35 36 37 37 37 37 37 37 37 37 36 36 36
16 17 22 25 26 27 28 30 28 29 26 22 21 29 34 32 31 30 29 28 28 27 27 27 27 27 27 29 30 31 33 34 36 36 36 36 37 37 37 38 38 39 39 39
15 15 17 21 24 26 27 26 29 30 26 23 22 24 26 29 28 27 26 26 26 26 25 25 26 27 28 29 30 31 33 34 35 36 36 37 38 39 39 40 41 42 43 43
13 13 14 17 19 19 24 27 28 27 24 22 19 20 25 25 24 24 25 25 25 25 25 26 27 29 30 31 32 33 34 35 36 37 38 39 40 41 42 44 45 46 46 47
12 12 13 16 19 20 22 23 26 26 25 26 22 24 25 23 22 22 23 24 25 26 26 28 29 31 32 33 34 36 37 38 39 40 41 42 43 44 46 47 49 50 50 50
12 13 13 15 18 22 23 25 26 28 27 25 23 27 28 26 25 25 26 27 28 29 30 32 33 34 36 37 39 40 41 42 43 44 44 45 46 48 49 50 51 52 51 51
14 15 16 17 19 22 24 26 27 28 26 26 27 31 31 30 30 30 31 32 33 34 35 36 37 39 40 41 43 44 45 46 47 47 48 48 49 50 51 52 53 53 53 52
16 18 19 21 22 23 25 27 28 30 31 30 32 35 35 34 34 35 35 36 38 39 40 41 41 42 43 44 45 47 47 48 48 48 49 49 50 51 52 53 53 53 54 54
17 19 21 23 24 25 26 27 29 30 32 34 35 37 37 37 37 38 39 40 41 42 42 42 43 44 44 44 44 45 45 45 45 46 47 49 51 52 53 53 53 53 54 53
16 18 20 22 24 25 27 29 29 31 32 33 35 37 38 39 40 40 41 41 41 42 41 41 42 42 42 43 44 43 44 44 45 46 47 49 51 52 53 53 53 53 52 52
14 15 17 20 22 24 28 28 29 31 32 34 36 38 38 39 40 40 39 39 39 39 38 38 38 39 40 41 41 42 43 44 46 47 49 50 50 51 51 51 51 51 51 51
12 13 14 16 19 21 24 24 26 28 30 30 32 32 33 34 35 36 35 35 36 36 36 36 36 37 38 40 41 42 44 46 47 48 48 49 49 49 49 49 49 49 49 49
12 12 13 14 16 19 20 20 21 23 26 26 27 28 29 29 31 31 31 31 32 33 34 36 37 39 40 41 43 44 45 45 46 46 47 47 48 48 48 47 47 47 47 47
11 11 11 12 14 17 16 16 17 20 22 22 23 23 24 26 28 29 30 30 32 33 34 36 38 39 40 40 41 42 43 44 44 45 45 45 45 45 45 45 44 44 45 45
11 10 10 11 13 14 13 14 16 18 19 20 20 21 22 23 24 26 28 29 31 32 33 35 36 37 38 39 40 40 41 41 42 42 42 42 41 41 41 41 41 41 41 41
11 10 10 10 11 11 11 12 13 15 17 18 19 20 21 22 23 25 27 28 30 31 33 34 35 35 36 37 37 37 37 38 38 38 38 38 38 38 38 38 38 39 38 38
11 10 9 10 10 11 11 10 12 14 15 17 18 19 21 22 24 25 26 27 28 29 31 31 32 32 32 33 33 33 33 34 34 34 35 35 36 36 36 35 35 34 33 32
10 9 9 10 11 11 12 12 13 15 16 17 18 19 21 22 23 24 24 24 25 25 26 26 27 27 27 28 28 29 30 31 32 32 33 33 33 32 31 31 30 29 28 26
10 9 9 9 10 11 12 14 14 15 15 16 17 18 19 19 19 19 19 19 20 21 21 22 22 23 24 25 26 28 28 29 29 29 28 28 27 27 27 26 25 23 21 19
Wind_Direction
225 228 228 227 224 224 222 221 224 229 235 233 235 236 239 242 243 245 247 250 254 259 264 269 272 273 276 279 280 282 282 284 288 291 294 295 297 299 299 294 296 296 293 291
224 228 228 228 226 226 224 223 225 230 235 236 238 240 242 245 246 248 250 253 256 259 264 269 273 274 274 275 277 279 280 282 285 288 290 293 295 297 299 298 300 302 302 298
223 226 227 228 228 228 227 225 225 228 233 238 242 245 247 249 250 251 253 255 257 260 264 269 273 273 272 272 274 276 278 279 282 285 288 292 294 298 300 302 305 309 311 306
221 224 225 227 228 228 229 227 227 229 232 235 240 239 245 249 250 253 255 258 261 264 268 270 271 270 270 270 271 273 275 277 280 284 287 290 292 295 300 302 306 315 322 318
220 223 224 226 228 228 229 229 229 230 232 234 241 241 240 252 253 253 256 260 263 266 268 270 269 268 268 268 269 271 272 274 278 281 284 287 289 293 296 300 304 313 318 318
219 220 223 224 227 228 229 230 231 232 234 237 240 243 241 248 253 256 257 259 262 265 267 268 267 267 266 266 267 267 268 271 274 278 281 284 286 290 294 298 303 308 312 312
220 223 224 225 227 229 230 231 233 235 238 241 242 243 241 248 254 256 257 258 260 263 265 267 267 266 264 264 264 265 267 270 273 275 278 281 284 288 292 297 301 305 306 307
224 228 229 228 230 233 233 232 231 232 241 244 248 244 245 250 252 253 254 256 259 261 263 264 264 263 263 263 263 264 266 268 271 274 277 280 283 287 292 296 300 302 304 304
221 226 233 234 233 233 234 233 231 233 233 232 241 248 249 249 250 251 253 255 258 260 261 261 262 262 262 262 263 264 266 268 271 274 277 280 285 289 293 296 299 302 303 303
219 224 235 236 236 235 232 232 231 232 232 238 244 255 258 252 250 252 254 256 259 260 260 259 260 261 262 263 264 266 268 270 272 275 279 283 287 291 295 298 300 302 302 301
222 226 233 237 237 235 233 231 232 232 230 232 239 246 251 255 253 253 255 256 259 260 260 260 261 263 265 266 267 269 270 272 275 278 281 285 289 293 296 298 300 301 301 300
225 227 227 233 234 231 231 230 231 231 235 239 234 246 250 253 252 253 255 256 258 259 261 262 263 265 267 268 270 271 273 275 278 280 283 286 289 292 295 297 298 298 299 298
230 231 232 239 238 233 232 232 232 234 234 240 243 250 253 254 255 255 255 257 259 260 262 264 266 268 270 272 273 274 276 277 279 281 284 286 289 292 294 295 296 296 296 296
236 236 231 231 235 240 238 236 236 238 240 246 247 249 254 257 258 258 258 260 261 263 265 266 268 271 273 274 275 276 277 278 279 281 283 286 289 291 292 293 294 294 294 294
251 246 243 241 243 244 243 241 239 239 241 244 249 254 258 260 260 260 261 263 264 266 266 267 269 272 274 276 277 277 278 279 279 281 283 286 288 290 291 292 292 292 292 292
261 259 256 254 251 249 250 250 249 247 246 247 251 255 257 259 259 261 263 264 266 267 268 269 270 273 275 277 278 280 280 281 282 283 284 286 287 288 289 290 290 290 290 290
269 264 260 257 256 255 253 251 252 254 254 252 253 255 256 258 260 262 263 265 267 267 267 270 272 274 276 278 280 281 283 283 284 285 286 286 287 288 288 289 289 289 289 289
279 272 265 261 258 254 254 254 253 255 257 257 257 257 259 259 259 260 262 265 266 269 270 272 275 277 278 281 284 285 284 284 285 286 286 286 287 288 289 289 289 289 289 289
292 281 273 265 261 260 260 257 255 255 258 259 260 262 263 263 262 261 264 267 269 271 273 275 277 279 280 282 284 284 285 286 288 288 288 288 288 289 289 289 289 290 290 290
304 292 280 272 264 261 263 261 256 255 257 259 260 261 262 263 264 265 267 268 268 271 274 276 277 279 281 284 285 286 288 288 289 289 289 290 290 290 290 290 290 291 291 291
311 301 288 279 271 269 268 262 256 251 254 256 258 259 258 257 259 262 265 267 270 273 275 277 280 283 284 286 287 288 289 290 290 291 291 291 291 291 291 291 291 292 293 293
317 307 296 286 279 276 271 261 253 254 256 257 259 261 263 265 267 268 270 272 274 277 279 281 283 285 286 288 289 291 291 291 292 292 292 292 292 293 293 293 293 294 294 294
317 309 299 294 288 283 280 268 260 260 261 261 261 264 267 270 273 274 275 277 279 281 283 285 287 289 290 291 292 293 294 294 295 295 295 295 295 295 295 295 296 296 296 296
318 310 299 293 289 285 282 276 268 267 270 270 270 273 275 278 280 281 282 283 284 285 287 289 290 291 293 294 295 296 296 297 297 298 298 298 298 298 298 298 298 298 298 298
317 307 298 292 288 285 281 279 278 279 279 279 279 281 283 284 284 285 285 286 287 288 290 292 293 294 296 298 299 300 301 301 301 302 302 302 302 302 302 302 301 301 300 299
318 308 299 295 290 285 283 283 283 284 283 284 284 285 287 288 288 288 287 289 291 294 295 296 298 299 301 303 305 305 306 307 307 307 307 308 307 307 307 306 305 304 304 302
Height
5805 5811 5815 5819 5823 5827 5831 5835 5838 5841 5843 5848 5851 5854 5858 5860 5864 5866 5869 5871 5873 5874 5875 5875 5875 5876 5876 5875 5874 5873 5871 5870 5868 5866 5863 5861 5859 5856 5852 5847 5844 5841 5838 5835
5799 5804 5808 5812 5816 5821 5825 5830 5833 5836 5838 5843 5845 5848 5852 5855 5857 5860 5862 5865 5867 5868 5869 5870 5870 5870 5871 5870 5870 5868 5867 5865 5863 5861 5858 5856 5853 5849 5845 5841 5837 5834 5831 5827
5792 5798 5801 5806 5810 5815 5819 5824 5828 5831 5833 5836 5840 5844 5847 5849 5851 5853 5856 5858 5860 5862 5863 5864 5864 5864 5864 5864 5864 5863 5861 5859 5857 5855 5853 5850 5846 5843 5839 5836 5832 5829 5824 5821
5784 5790 5795 5800 5804 5809 5813 5818 5822 5824 5828 5832 5834 5839 5842 5841 5843 5846 5848 5850 5852 5854 5855 5856 5857 5857 5858 5858 5857 5857 5856 5854 5851 5849 5846 5843 5840 5837 5834 5830 5827 5823 5819 5816
5779 5784 5789 5794 5798 5803 5807 5811 5815 5818 5821 5824 5826 5831 5837 5833 5835 5837 5840 5842 5844 5845 5847 5848 5849 5850 5850 5851 5850 5850 5848 5847 5845 5842 5840 5837 5834 5831 5827 5824 5821 5818 5815 5813
5773 5778 5783 5787 5792 5796 5800 5805 5809 5812 5815 5818 5821 5824 5830 5826 5826 5829 5832 5834 5835 5836 5837 5839 5840 5842 5842 5842 5842 5842 5840 5839 5837 5835 5832 5830 5827 5824 5821 5818 5815 5812 5809 5807
5770 5774 5778 5782 5787 5791 5795 5800 5804 5807 5810 5813 5814 5817 5820 5817 5820 5822 5824 5825 5827 5828 5829 5830 5832 5833 5833 5834 5834 5833 5832 5830 5828 5826 5824 5822 5819 5816 5814 5811 5808 5805 5803 5800
5767 5771 5773 5777 5782 5785 5789 5794 5800 5804 5808 5810 5807 5810 5810 5811 5813 5815 5816 5818 5819 5820 5821 5822 5823 5824 5825 5825 5825 5824 5823 5821 5819 5818 5815 5813 5811 5808 5805 5802 5799 5797 5794 5792
5765 5769 5769 5772 5776 5780 5783 5787 5792 5796 5798 5803 5804 5801 5802 5804 5806 5808 5809 5811 5812 5813 5814 5815 5815 5816 5816 5816 5816 5815 5814 5813 5811 5809 5806 5804 5802 5799 5796 5793 5790 5788 5785 5782
5761 5765 5767 5768 5771 5774 5778 5781 5784 5788 5792 5796 5799 5798 5797 5797 5800 5802 5803 5804 5805 5806 5807 5807 5808 5808 5808 5808 5808 5807 5805 5804 5802 5800 5797 5795 5792 5789 5786 5783 5780 5777 5774 5771
5759 5762 5764 5765 5767 5770 5773 5775 5778 5782 5786 5791 5794 5797 5790 5791 5794 5795 5797 5798 5799 5799 5800 5800 5800 5800 5800 5799 5799 5798 5796 5794 5792 5790 5787 5785 5782 5779 5776 5772 5769 5766 5762 5759
5756 5759 5761 5762 5763 5765 5767 5770 5773 5777 5779 5781 5786 5789 5785 5785 5787 5789 5790 5791 5792 5792 5792 5792 5792 5791 5791 5790 5789 5788 5787 5785 5783 5780 5777 5774 5771 5768 5765 5761 5757 5754 5750 5746
5753 5756 5758 5760 5762 5762 5763 5765 5767 5770 5773 5775 5779 5781 5778 5779 5781 5782 5783 5784 5784 5784 5784 5783 5783 5782 5782 5781 5780 5778 5777 5775 5772 5770 5767 5764 5760 5757 5753 5749 5745 5741 5737 5733
5750 5751 5755 5757 5756 5757 5759 5761 5763 5766 5768 5770 5771 5771 5770 5772 5773 5775 5775 5776 5776 5775 5775 5774 5774 5773 5772 5770 5769 5767 5766 5763 5761 5758 5755 5752 5749 5745 5741 5737 5732 5728 5724 5720
5745 5746 5747 5749 5750 5751 5753 5754 5756 5758 5760 5763 5762 5762 5763 5764 5765 5766 5766 5766 5766 5766 5765 5764 5763 5762 5761 5759 5757 5755 5753 5751 5749 5746 5743 5740 5736 5732 5728 5723 5719 5714 5710 5705
5739 5740 5741 5742 5743 5744 5746 5747 5748 5750 5752 5753 5754 5755 5755 5755 5755 5756 5756 5756 5756 5755 5754 5753 5752 5750 5749 5747 5745 5743 5741 5738 5735 5733 5730 5726 5722 5718 5714 5710 5705 5701 5696 5691
5733 5734 5735 5735 5736 5737 5739 5739 5740 5741 5743 5744 5745 5746 5746 5746 5746 5746 5746 5746 5745 5744 5743 5742 5740 5738 5737 5735 5733 5731 5728 5725 5722 5719 5716 5712 5708 5704 5700 5695 5691 5686 5682 5677
5727 5727 5728 5728 5729 5730 5731 5731 5732 5733 5734 5735 5735 5736 5736 5737 5737 5736 5736 5735 5735 5733 5732 5730 5729 5727 5725 5723 5720 5718 5715 5712 5709 5706 5702 5698 5694 5690 5686 5681 5677 5672 5668 5663
5722 5722 5722 5722 5723 5722 5722 5723 5723 5725 5724 5725 5726 5726 5727 5727 5726 5726 5726 5725 5725 5723 5722 5720 5718 5716 5714 5711 5709 5706 5703 5699 5696 5692 5688 5684 5680 5676 5672 5668 5664 5659 5655 5650
5718 5717 5717 5717 5717 5716 5716 5716 5716 5718 5717 5717 5717 5717 5718 5718 5718 5718 5717 5716 5715 5714 5713 5711 5709 5706 5704 5701 5698 5694 5691 5687 5684 5680 5676 5671 5667 5663 5659 5654 5650 5646 5642 5637
5715 5713 5712 5711 5711 5710 5710 5710 5711 5712 5711 5710 5710 5709 5710 5709 5710 5709 5708 5708 5707 5705 5704 5702 5699 5697 5694 5690 5687 5683 5679 5676 5672 5668 5663 5659 5655 5650 5646 5642 5638 5633 5629 5625
5711 5710 5709 5707 5707 5707 5705 5705 5705 5705 5704 5704 5704 5703 5703 5703 5702 5701 5701 5700 5698 5697 5695 5693 5690 5687 5684 5680 5677 5673 5669 5665 5660 5656 5652 5647 5643 5639 5634 5630 5626 5622 5618 5614
5708 5707 5705 5705 5704 5702 5700 5700 5700 5700 5699 5699 5699 5698 5697 5697 5696 5695 5694 5692 5691 5689 5687 5684 5681 5678 5675 5671 5667 5663 5659 5654 5650 5646 5641 5637 5632 5628 5624 5619 5615 5611 5607 5603
5705 5703 5702 5701 5699 5698 5697 5697 5696 5696 5695 5694 5694 5693 5692 5691 5690 5689 5687 5685 5683 5681 5679 5676 5673 5670 5666 5662 5658 5654 5650 5645 5641 5637 5632 5627 5623 5618 5614 5609 5605 5601 5597 5593
5702 5700 5699 5698 5696 5695 5694 5693 5693 5692 5691 5690 5689 5688 5687 5685 5684 5682 5681 5679 5677 5674 5672 5669 5666 5662 5659 5655 5651 5647 5642 5637 5633 5628 5623 5619 5614 5609 5605 5601 5597 5593 5589 5586
5699 5697 5696 5695 5693 5692 5691 5689 5688 5687 5686 5685 5684 5683 5682 5680 5678 5677 5675 5673 5671 5669 5666 5663 5660 5657 5653 5649 5644 5640 5635 5630 5625 5620 5616 5611 5607 5602 5598 5594 5590 5585 5583 5580